Theta_e
311 311 311 311 311 312 312 313 314 315 317 317 317 318 317 316 315 306 301 310 315 324 323 306 299 298 297 296 296 295 286 282 283 284 283 289 287 291 293 291 293 295 294 297 302
311 310 310 310 311 311 312 313 314 315 316 316 317 318 317 315 304 300 313 322 324 324 306 299 296 296 292 292 292 291 284 283 286 285 285 288 290 289 290 290 290 292 296 300 300
311 310 309 310 310 310 311 312 314 315 316 316 316 317 318 312 295 297 317 322 322 318 308 301 300 295 290 290 289 287 283 287 288 290 290 289 290 292 288 288 288 289 293 297 297
311 310 309 309 309 310 311 312 313 314 316 316 316 318 318 302 285 301 318 320 320 309 301 297 295 290 287 286 289 286 288 289 291 292 291 288 290 289 289 289 293 294 295 296 296
311 310 309 308 308 309 310 312 313 314 315 315 316 318 305 292 295 306 316 311 305 303 299 296 292 289 286 288 288 286 287 291 291 292 291 292 290 289 289 291 294 295 296 295 296
311 310 309 308 308 309 310 312 313 314 314 315 316 317 299 287 303 306 305 305 303 300 298 297 294 293 290 288 286 288 289 289 290 290 291 290 288 290 289 290 292 293 293 293 296
312 310 309 308 307 308 310 312 313 313 314 315 315 307 296 293 303 304 304 302 303 300 297 298 297 293 291 288 290 290 286 287 288 289 289 291 287 287 288 291 290 290 291 294 296
312 310 309 307 307 308 310 311 312 313 314 315 316 300 290 304 302 303 304 302 304 302 299 299 298 294 291 290 289 285 284 281 286 289 290 289 281 288 289 290 288 289 289 293 296
313 310 309 307 307 308 310 311 312 312 313 315 301 296 290 308 300 302 302 300 301 301 300 303 296 291 290 284 281 283 278 280 283 289 289 287 282 289 290 289 287 287 290 292 294
313 311 309 307 307 308 311 311 311 310 308 307 302 293 297 295 299 301 301 301 298 297 296 296 290 286 284 282 278 279 279 280 280 285 286 285 284 287 288 288 287 286 288 290 292
313 311 309 307 306 308 307 301 297 298 299 295 295 295 297 301 302 298 301 299 297 294 287 290 284 280 283 284 285 283 280 279 282 287 284 283 284 285 286 287 286 287 287 288 291
313 311 308 307 306 308 304 297 297 299 292 298 298 297 299 300 294 296 300 293 291 286 287 284 281 286 289 288 286 284 281 280 283 287 285 283 284 286 286 286 286 287 287 288 290
313 311 308 306 306 304 299 299 304 300 292 294 297 296 297 298 292 292 296 293 289 287 286 280 285 290 288 285 284 282 281 280 280 285 285 282 279 283 285 286 287 288 287 289 289
313 311 307 304 302 299 298 304 305 302 283 286 291 295 298 297 290 296 296 293 290 285 285 284 288 287 284 284 285 281 285 285 284 281 277 282 271 281 282 284 286 286 286 287 288
312 310 307 304 299 296 301 304 303 297 278 288 289 299 298 293 293 291 296 293 286 286 284 282 284 284 283 284 287 283 287 285 284 281 277 278 273 277 282 281 283 285 286 286 287
312 310 306 300 300 301 304 303 299 286 280 283 290 290 291 292 291 292 291 293 292 285 286 283 289 288 286 288 288 289 286 284 283 279 271 278 275 272 275 279 283 285 285 286 287
311 308 304 302 294 303 303 296 282 276 285 282 284 289 289 287 288 289 286 284 279 276 276 282 283 286 289 285 287 286 280 273 271 271 272 279 275 276 282 284 284 284 284 284 286
309 306 303 301 301 301 297 287 276 281 281 286 287 288 285 287 285 286 285 280 284 282 275 276 274 284 288 285 283 284 282 274 266 270 274 279 274 279 284 286 286 286 284 284 284
305 299 298 299 300 298 291 279 282 282 286 285 286 283 281 284 285 284 283 281 283 284 277 276 277 286 288 288 286 283 280 284 277 269 272 275 279 283 284 283 284 284 283 282 283
297 295 295 300 299 295 286 281 282 286 287 287 281 284 280 282 281 281 282 285 284 285 284 282 276 282 286 287 287 284 286 277 277 267 267 274 276 276 280 281 282 281 281 282 283
294 288 295 300 297 288 276 277 283 287 289 285 283 282 282 281 282 282 283 286 287 285 285 283 279 279 283 281 280 282 280 282 281 279 272 270 273 279 281 282 281 281 282 281 282
292 284 297 297 285 282 279 281 287 285 287 285 286 284 283 283 282 281 282 285 290 288 282 283 281 275 278 283 285 284 282 282 276 275 277 276 274 284 284 283 283 282 282 282 281
286 285 296 294 280 275 276 278 284 283 283 283 283 285 285 283 280 283 284 287 289 287 283 284 276 270 274 279 282 280 283 283 282 280 277 273 273 284 284 283 283 281 281 281 280
286 281 285 289 287 278 278 277 277 285 284 284 283 284 282 281 283 281 282 286 288 288 290 287 280 276 273 276 280 279 281 282 282 276 276 277 276 279 282 282 282 281 281 281 280
286 283 285 278 281 281 283 279 279 278 283 284 281 282 282 277 280 280 283 284 286 289 285 283 271 278 278 279 279 280 280 281 280 280 276 276 278 281 282 282 283 281 281 281 281
285 284 286 283 285 283 283 277 280 280 281 280 275 282 282 279 281 280 282 282 282 285 283 282 274 276 272 277 277 277 280 281 282 282 279 278 278 282 284 283 282 282 282 281 281
292 293 291 285 284 283 281 281 280 283 283 284 283 282 281 283 286 285 286 287 285 283 281 279 276 274 268 274 273 268 275 279 281 282 282 278 281 281 281 283 283 283 282 281 281
Wind_Speed
8 9 10 11 13 13 14 14 15 15 15 14 15 15 15 15 10 7 10 8 10 20 13 9 4 7 6 6 6 4 7 3 4 4 1 7 5 5 3 6 5 6 3 5 9
7 8 10 11 13 13 14 14 15 15 15 14 15 15 14 13 2 9 8 18 19 17 5 8 9 8 6 5 6 8 6 3 2 1 4 4 7 2 6 6 5 5 7 8 7
6 8 10 11 13 14 14 14 14 14 14 14 15 15 14 7 2 5 16 21 21 14 3 1 3 3 7 5 6 4 5 5 3 2 3 4 7 6 3 5 2 3 5 7 8
5 7 9 10 13 14 14 15 15 14 14 14 15 15 13 2 2 4 16 20 18 11 3 4 5 6 7 6 5 9 5 5 2 3 2 2 3 4 4 3 4 5 5 8 12
3 6 8 10 12 13 14 15 15 14 14 14 15 16 2 6 2 7 15 14 7 5 6 4 7 5 6 7 5 8 4 5 4 5 4 6 5 5 6 6 8 9 9 8 9
4 4 7 9 11 13 14 15 15 14 14 14 14 12 2 4 4 8 9 9 8 6 6 7 4 6 8 4 5 4 7 5 3 4 3 4 2 3 3 3 10 10 9 8 9
5 4 5 9 11 13 14 15 16 14 13 13 12 3 7 2 2 8 8 3 7 4 5 3 3 6 6 6 4 7 6 3 4 1 2 2 4 2 1 8 9 9 8 8 11
6 5 5 8 10 13 15 15 16 14 13 10 11 2 2 2 2 5 8 5 8 4 2 2 6 10 6 5 4 3 4 3 2 1 1 4 3 1 4 11 7 8 8 8 10
7 6 5 7 10 13 15 16 15 13 13 10 2 2 1 2 4 5 4 4 7 4 3 1 6 6 6 6 5 6 2 1 2 3 1 2 3 4 4 8 7 7 8 8 12
7 6 6 6 10 12 16 14 9 8 3 1 1 3 4 2 3 5 4 4 3 5 5 7 7 5 5 4 5 4 3 1 2 2 2 2 3 4 4 9 7 5 7 10 14
9 7 7 7 10 12 8 4 4 3 7 3 0 2 2 5 3 6 4 7 1 8 4 5 7 4 6 2 2 2 4 3 1 2 2 2 1 4 2 7 8 8 8 8 12
10 7 5 8 10 11 2 4 2 0 2 3 2 3 1 1 3 6 8 2 4 3 2 8 3 3 1 2 5 4 4 1 2 1 2 2 5 3 3 4 5 6 8 12 14
10 7 5 7 10 3 4 3 1 2 2 1 1 2 2 3 2 5 5 2 5 5 4 6 3 2 2 4 5 3 3 2 2 4 3 2 4 5 2 2 4 7 6 13 16
12 8 5 5 5 0 2 3 2 1 5 1 1 2 1 2 3 2 3 2 5 5 3 5 0 3 4 3 1 3 2 2 1 3 2 4 5 4 1 6 6 8 12 13 15
14 11 6 2 1 2 4 2 1 2 2 3 0 1 1 3 2 6 2 4 4 3 5 2 3 2 2 3 1 3 2 2 1 2 4 1 3 5 3 5 6 10 10 10 13
15 12 8 1 0 1 2 2 2 7 8 1 1 2 2 2 2 1 3 6 4 6 7 2 1 2 2 2 3 4 3 4 4 2 3 3 5 5 1 3 4 6 8 10 12
16 13 6 2 3 2 2 2 5 5 3 2 3 3 2 2 2 1 2 3 5 7 1 5 2 1 1 4 3 2 4 3 5 4 5 2 2 5 4 3 3 4 7 8 10
17 13 3 1 1 4 1 6 3 3 5 1 3 4 3 2 2 1 4 1 3 4 4 6 5 7 4 3 5 5 4 5 7 3 3 3 5 2 5 5 4 3 4 6 10
21 2 3 1 1 3 6 2 7 7 7 9 3 4 2 2 4 2 5 4 7 8 6 5 1 1 2 1 1 4 4 3 6 2 3 3 1 2 4 2 4 5 6 8 8
6 3 2 3 0 3 5 7 5 3 6 4 5 3 7 5 4 4 6 4 4 5 2 5 4 1 2 1 2 3 2 3 2 3 4 4 5 5 7 4 4 4 6 7 7
7 4 3 3 1 4 6 8 4 2 2 6 6 4 4 7 6 5 5 2 2 4 3 4 3 1 2 7 8 3 3 3 2 3 4 1 6 4 7 7 7 5 5 5 6
5 4 2 2 4 2 4 7 4 5 1 2 2 4 6 7 6 5 7 4 4 5 6 3 5 4 5 2 1 2 5 6 4 5 2 2 6 5 7 7 7 6 6 3 2
7 4 2 2 8 4 3 2 3 4 6 6 6 3 2 7 4 5 5 1 3 3 6 4 2 3 6 3 1 6 6 4 3 2 6 6 5 4 6 6 7 7 7 3 1
7 7 2 2 1 6 6 4 5 2 3 3 4 4 4 4 1 6 4 2 1 3 4 3 3 5 7 3 4 5 6 7 5 4 5 7 5 7 9 8 7 7 7 6 2
4 5 7 11 12 7 7 11 10 7 2 3 2 6 8 5 3 5 3 3 2 4 3 4 5 3 3 2 2 3 4 10 14 6 8 4 11 14 16 13 11 8 8 7 4
8 8 3 4 10 14 12 10 13 6 11 7 5 10 8 7 9 9 7 5 6 3 5 2 2 2 4 3 3 5 7 9 16 13 8 3 6 5 9 8 8 10 10 8 6
3 2 6 12 10 16 11 13 20 12 7 5 14 8 6 5 4 3 3 4 7 10 7 6 6 4 6 2 2 7 17 20 9 8 14 14 10 8 7 13 14 12 12 11 8
Wind_Direction
353 349 351 351 352 354 353 352 351 350 350 350 348 346 350 347 349 20 40 315 319 313 324 294 6 357 38 52 43 84 63 58 10 35 315 346 48 6 39 89 26 1 16 317 326
347 343 345 347 347 349 349 348 347 346 345 347 346 343 348 345 18 41 326 334 329 327 358 26 355 1 45 24 24 67 84 123 240 131 78 28 60 38 67 21 357 5 349 353 360
334 337 341 343 343 343 344 343 342 342 340 341 342 338 336 332 77 328 329 332 330 331 196 60 321 32 57 10 5 46 114 155 26 79 83 109 45 8 56 19 347 322 319 2 19
314 328 335 339 338 338 339 338 336 336 334 334 336 332 330 350 126 287 323 329 327 327 119 43 32 49 63 46 345 96 58 120 144 32 69 62 93 33 48 328 320 53 49 29 19
276 316 327 332 333 333 335 333 333 331 329 329 333 333 26 43 9 301 325 330 345 352 44 76 56 95 96 115 57 72 141 79 117 50 60 93 107 129 21 353 41 43 38 36 24
243 294 317 323 328 329 331 329 329 326 323 325 334 333 35 70 294 319 333 340 2 24 13 38 122 121 88 65 82 116 104 128 94 91 69 98 99 122 19 358 44 38 22 26 10
232 267 302 314 323 326 326 325 323 319 316 321 333 353 57 150 321 331 345 334 351 9 49 8 160 78 123 86 155 138 83 78 13 333 133 157 25 92 272 72 49 28 17 4 352
228 250 288 308 318 321 320 321 317 312 307 314 321 40 90 280 290 357 342 337 349 341 52 358 77 96 77 130 65 79 67 94 296 334 174 100 231 176 360 81 45 23 8 348 345
218 244 274 301 316 316 318 315 306 301 294 302 5 76 69 337 22 315 19 343 313 339 352 15 65 79 38 88 43 16 185 153 305 13 266 141 191 130 39 74 43 26 348 341 347
210 243 267 297 308 317 322 311 293 323 335 181 356 49 7 340 314 331 325 349 15 328 16 44 54 77 39 71 201 185 183 140 206 299 336 173 231 106 59 67 36 8 342 358 350
202 231 267 294 310 324 347 12 19 2 35 81 343 78 12 309 343 353 358 333 72 48 65 5 75 147 154 131 136 167 126 133 220 265 296 253 263 131 45 58 33 8 360 346 339
194 214 251 288 305 318 60 69 95 209 38 353 79 79 61 10 355 349 0 66 61 100 63 26 106 186 199 93 98 69 122 151 309 346 26 311 281 144 68 77 62 10 359 354 343
189 198 234 290 308 342 82 107 31 359 131 350 20 59 305 23 76 324 14 337 87 59 16 128 146 140 107 59 98 48 147 167 198 330 261 343 296 164 198 98 46 25 9 3 352
177 185 212 280 295 241 83 132 34 333 65 223 72 8 11 110 46 311 8 64 45 131 95 85 207 123 103 89 93 155 136 104 16 54 214 92 270 238 350 10 21 7 12 358 344
172 171 195 213 294 189 137 96 37 44 312 58 110 321 318 109 125 358 334 34 89 84 96 201 124 119 117 136 28 145 118 108 68 70 51 198 74 254 19 353 352 5 0 351 345
167 163 165 160 204 304 131 124 87 45 249 194 336 152 109 53 57 338 50 46 124 72 35 113 328 51 103 82 69 125 96 52 47 68 16 218 129 281 288 226 347 349 346 353 340
162 156 152 144 176 40 355 95 64 174 348 209 161 162 119 131 77 109 98 99 144 90 359 357 345 13 134 95 24 88 84 4 354 5 228 131 41 257 143 110 90 351 348 350 337
147 125 101 129 64 82 210 63 173 218 209 204 122 121 147 150 349 83 108 148 219 105 113 149 290 177 173 205 177 182 174 161 203 200 269 319 245 250 142 111 94 60 9 6 353
128 108 127 140 117 83 85 160 211 199 157 147 60 115 176 195 145 106 197 205 203 181 155 134 278 44 107 53 144 181 196 158 107 27 45 215 80 257 144 118 70 45 28 21 353
114 124 138 126 252 86 81 241 219 199 135 143 173 162 168 190 155 172 185 218 178 182 147 208 89 263 161 115 265 192 163 84 0 131 263 270 251 220 190 175 85 46 45 28 349
93 127 194 130 64 59 181 229 219 153 155 157 175 154 164 172 182 186 185 292 160 152 98 151 109 173 82 204 181 171 210 213 125 165 169 252 256 198 164 167 145 116 79 50 348
132 133 118 81 123 164 207 196 181 159 359 162 154 137 165 152 161 193 195 191 188 157 168 172 119 170 198 253 257 250 211 181 153 202 218 141 270 142 152 165 143 143 118 86 344
124 102 342 27 183 212 274 265 169 157 187 181 185 194 156 164 153 178 174 138 209 138 159 164 252 59 343 344 307 219 193 195 124 81 199 147 246 174 137 154 156 154 127 120 42
121 133 91 302 66 160 156 191 192 217 171 174 155 115 115 129 156 167 146 131 17 119 94 109 178 191 194 178 127 203 195 182 164 159 179 223 161 190 184 179 171 166 141 147 138
146 171 177 175 211 190 183 166 164 175 206 200 329 206 166 133 113 168 136 118 56 134 104 144 199 214 227 191 241 240 206 191 209 191 183 215 193 196 188 186 183 174 150 148 168
145 153 138 166 142 160 187 205 187 163 155 212 181 182 191 165 181 183 146 187 186 162 161 151 239 94 300 295 260 268 240 218 226 236 267 208 237 206 157 125 160 174 159 163 173
149 39 132 157 151 170 195 182 199 145 225 191 178 144 182 199 142 103 140 160 165 149 167 158 140 133 258 354 6 304 220 213 199 203 208 211 201 152 151 172 180 180 169 169 166